Emporia, KS

3:02 PM CDT on June 26, 2017 (GMT -0500)
Emporia Municipal

Weather History for KEMP - February, 2012

Change the Weather History Date:

Wednesday, February 8, 2012

  Actual Average Record
Temperature  
Mean Temperature 32 °F 33 °F  
Max Temperature 35 °F 44 °F 72 °F (2015)
Min Temperature 29 °F 23 °F 0 °F (2004)
Degree Days  
Heating Degree Days 33 32  
Month to date heating degree days 192 259  
Since 1 July heating degree days 2768 3247  
Cooling Degree Days 0 0  
Month to date cooling degree days 0 0  
Year to date cooling degree days 0 0  
Moisture  
Dew Point 28 °F    
Average Humidity 88    
Maximum Humidity 100    
Minimum Humidity 75    
Precipitation  
Precipitation 0.00 in 0.05 in 0.79 in (2001)
Month to date precipitation 1.64 0.35  
Year to date precipitation 1.64 0.98  
Sea Level Pressure  
Sea Level Pressure 30.45 in    
Wind  
Wind Speed 4 mph (North)    
Max Wind Speed 13 mph    
Max Gust Speed 15 mph    
Visibility 8 miles    
Events      
T = Trace of Precipitation, MM = Missing Value Source: NWS Daily Summary

Daily Weather History Graph

Daily Weather History Graph

Search for Another Location

Airport or City:

Trip Planner

Search our weather history database for the weather conditions in past years. The results will help you decide how hot, cold, wet, or windy it might be!

Date:

Astronomy

Feb. 08, 2012 Rise Set
Actual Time 7:23 AM CST 5:54 PM CST
Civil Twilight 6:56 AM CST 6:22 PM CST
Nautical Twilight 6:24 AM CST 6:53 PM CST
Astronomical Twilight 5:53 AM CST 7:24 PM CST
Moon 7:13 PM CST (2/8) 7:28 AM CST (2/8)
Length of Visible Light 11h 26m
Length of Day
10h 31m
Full, 99% of the Moon is Illuminated
Feb 8
Full
Feb 14
Last Quarter
Feb 21
New
Feb 29
First Quarter
Mar 8
Full

Hourly Weather History & Observations

Time (CST) Temp. Windchill Dew Point Humidity Pressure Visibility Wind Dir Wind Speed Gust Speed Precip Events Conditions
12:53 AM 32.0 °F 24.8 °F 30.0 °F 92% 30.49 in 6.0 mi North 8.1 mph - N/A   Overcast
1:32 AM 32.0 °F 24.2 °F 30.2 °F 93% 30.46 in 6.0 mi NNW 9.2 mph - N/A   Overcast
1:53 AM 30.9 °F 21.7 °F 30.0 °F 96% 30.50 in 4.0 mi NNW 11.5 mph - N/A   Overcast
2:53 AM 30.9 °F 23.5 °F 28.9 °F 92% 30.50 in 7.0 mi North 8.1 mph - N/A   Overcast
3:30 AM 30.2 °F 21.9 °F 28.4 °F 93% 30.45 in 10.0 mi North 9.2 mph - N/A   Overcast
3:42 AM 30.2 °F 22.6 °F 28.4 °F 93% 30.45 in 10.0 mi North 8.1 mph - N/A   Overcast
3:53 AM 30.9 °F 22.8 °F 28.0 °F 89% 30.49 in 10.0 mi North 9.2 mph - N/A   Overcast
4:53 AM 30.0 °F 21.1 °F 28.0 °F 92% 30.51 in 4.0 mi NNW 10.4 mph - N/A   Overcast
5:53 AM 28.9 °F 21.9 °F 27.0 °F 92% 30.51 in 4.0 mi North 6.9 mph - N/A   Overcast
6:53 AM 28.9 °F 20.4 °F 27.0 °F 92% 30.51 in 4.0 mi North 9.2 mph - N/A   Overcast
7:53 AM 28.9 °F 22.8 °F 27.0 °F 92% 30.53 in 4.0 mi North 5.8 mph - N/A   Overcast
8:53 AM 30.0 °F 25.2 °F 27.0 °F 88% 30.54 in 4.0 mi North 4.6 mph - N/A   Overcast
9:53 AM 30.0 °F 26.5 °F 27.0 °F 88% 30.54 in 4.0 mi North 3.5 mph - N/A   Overcast
10:53 AM 30.0 °F 24.1 °F 27.0 °F 88% 30.54 in 5.0 mi NW 5.8 mph - N/A   Overcast
11:18 AM 30.2 °F 24.3 °F 26.6 °F 86% 30.50 in 5.0 mi NW 5.8 mph - N/A   Overcast
11:53 AM 30.9 °F - 27.0 °F 85% 30.53 in 5.0 mi Calm Calm - N/A   Overcast
12:53 PM 30.9 °F - 27.0 °F 85% 30.51 in 6.0 mi Calm Calm - N/A   Overcast
1:53 PM 32.0 °F - 27.0 °F 82% 30.46 in 7.0 mi Calm Calm - N/A   Overcast
2:34 PM 33.8 °F - 26.6 °F 75% 30.41 in 8.0 mi Calm Calm - N/A   Overcast
2:53 PM 34.0 °F - 27.0 °F 75% 30.45 in 8.0 mi Calm Calm - N/A   Overcast
3:53 PM 34.0 °F - 27.0 °F 75% 30.43 in 8.0 mi Calm Calm - N/A   Overcast
4:53 PM 34.0 °F 31.0 °F 27.0 °F 75% 30.42 in 9.0 mi East 3.5 mph - N/A   Overcast
5:53 PM 33.1 °F 28.7 °F 26.1 °F 75% 30.41 in 10.0 mi ESE 4.6 mph - N/A   Overcast
6:53 PM 33.1 °F - 26.1 °F 75% 30.41 in 10.0 mi Calm Calm - N/A   Overcast
7:15 PM 33.8 °F - 26.6 °F 75% 30.38 in 10.0 mi Calm Calm - N/A   Overcast
7:43 PM 33.8 °F - 26.6 °F 75% 30.38 in 10.0 mi Calm Calm - N/A   Overcast
7:53 PM 34.0 °F - 27.0 °F 75% 30.42 in 10.0 mi Calm Calm - N/A   Overcast
8:12 PM 33.8 °F - 26.6 °F 75% 30.38 in 10.0 mi Calm Calm - N/A   Overcast
8:53 PM 33.1 °F 30.0 °F 28.0 °F 82% 30.42 in 10.0 mi SW 3.5 mph - N/A   Overcast
9:50 PM 33.8 °F - 26.6 °F 75% 30.37 in 9.0 mi Calm Calm - N/A   Overcast
9:53 PM 33.1 °F - 27.0 °F 78% 30.41 in 9.0 mi Calm Calm - N/A   Overcast
10:53 PM 33.1 °F - 28.0 °F 82% 30.40 in 8.0 mi Calm Calm - N/A   Overcast
11:53 PM 33.1 °F - 28.9 °F 85% 30.40 in 8.0 mi Calm Calm - N/A   Overcast